Wind_Speed
15 15 15 15 15 12 9 8 8 7 7 5 4 4 4 3 3 3 2 2 2 1 2 2 2 2 2 2 3 2 2 2 2 2 2 2 3 4 4 5 5 5 5 5 4 4 4 4 4
15 14 15 16 14 9 9 9 8 8 8 6 5 5 5 4 4 3 2 2 2 2 2 3 2 2 3 3 3 2 2 1 2 2 3 2 3 4 4 5 5 5 4 4 4 4 4 5 4
15 15 16 16 12 10 10 9 9 9 8 7 7 6 5 5 4 4 3 3 2 2 2 2 3 3 3 3 3 2 1 1 1 2 3 4 3 4 4 4 4 4 4 4 5 5 4 5 5
15 17 17 14 11 10 9 9 9 9 9 8 7 7 6 6 5 4 4 3 3 3 3 3 3 3 4 4 3 2 1 1 0 1 4 4 4 4 3 3 3 3 4 5 5 4 4 5 5
15 17 17 13 10 10 10 8 8 9 9 8 7 7 8 8 7 6 5 4 4 4 4 4 4 4 4 4 3 3 1 1 0 1 3 4 4 3 3 3 2 2 2 3 3 3 3 4 5
16 17 14 11 9 9 9 9 8 8 8 8 8 8 8 8 8 6 6 5 5 5 5 4 4 4 4 4 4 4 2 1 1 1 3 3 3 3 3 2 1 0 1 2 2 3 3 4 4
16 15 11 8 8 8 9 9 9 8 8 8 9 9 8 8 8 7 6 5 5 5 5 5 4 4 3 3 5 3 3 2 1 2 2 3 3 3 3 2 1 0 1 1 2 3 3 4 4
14 13 10 8 8 8 9 8 8 8 8 9 9 9 9 8 8 7 7 6 6 6 6 6 5 5 5 4 5 4 3 3 3 2 2 3 3 3 2 2 2 2 1 1 2 2 3 3 4
14 11 9 8 7 7 8 8 9 8 8 8 9 9 9 9 8 8 8 7 7 7 7 7 6 6 6 5 5 5 4 4 3 2 2 2 2 2 1 1 1 1 1 1 2 2 3 4 3
10 8 8 7 7 7 7 8 9 8 8 9 9 9 9 9 8 7 7 8 7 7 7 7 7 7 7 6 5 5 4 4 3 2 2 2 2 2 1 1 0 1 1 1 2 2 3 3 4
8 7 6 6 6 6 6 7 9 9 9 8 9 9 10 9 8 8 8 8 7 7 7 8 8 8 7 7 5 3 3 4 4 3 2 1 2 2 2 1 1 2 2 2 3 3 3 3 3
5 5 5 5 6 7 7 7 8 8 9 9 9 9 9 8 8 8 8 8 8 8 8 8 9 9 8 7 5 4 4 4 3 4 3 2 2 2 2 1 1 2 2 2 2 3 4 3 4
4 5 6 6 7 7 7 8 8 9 8 9 9 9 9 8 7 7 8 8 8 8 8 9 9 9 9 7 6 5 4 3 3 4 3 2 2 1 2 1 1 2 2 2 3 3 3 4 4
3 5 6 6 7 8 8 8 9 9 9 10 10 9 9 8 7 7 7 7 7 8 9 9 9 9 9 8 6 5 4 4 4 4 3 3 3 2 2 2 2 2 2 3 3 4 4 4 4
2 5 5 7 7 7 8 9 10 9 9 10 10 10 10 8 8 7 7 7 7 8 8 9 8 9 9 8 8 6 5 5 4 3 3 3 2 2 3 3 3 3 3 3 4 4 4 4 4
3 3 5 7 8 8 8 9 11 10 10 10 10 9 9 9 9 8 7 7 8 8 8 8 8 8 9 9 9 7 6 6 4 3 3 2 2 3 3 3 3 4 4 4 4 4 4 4 5
4 6 6 8 8 8 7 8 10 10 10 10 10 9 9 9 9 8 7 7 8 8 8 8 8 8 9 9 9 8 6 6 5 4 3 3 2 3 3 4 4 4 4 4 4 4 4 5 6
5 6 5 6 8 7 7 8 10 11 11 11 11 10 9 9 9 8 8 7 8 8 8 8 8 8 8 9 9 8 7 6 5 5 4 4 3 4 4 4 4 4 4 5 5 4 5 6 7
6 6 6 7 8 8 7 8 8 10 11 12 11 10 9 9 9 8 8 7 7 8 8 8 8 7 7 8 8 8 7 6 6 5 5 4 4 4 4 4 4 4 5 5 5 6 7 7 8
7 7 6 7 8 9 9 8 9 9 10 11 11 11 10 9 9 9 8 7 7 8 8 8 8 7 8 8 8 8 8 7 6 5 5 5 5 4 4 5 5 6 6 6 6 7 8 8 8
9 8 9 8 10 9 10 9 8 11 11 10 11 11 11 9 9 8 8 8 8 8 8 8 7 8 8 8 8 8 8 7 7 6 6 6 5 5 5 5 6 6 6 7 8 8 9 9 10
12 10 11 10 11 9 10 11 9 11 12 11 11 11 10 10 9 9 9 9 9 9 9 8 7 8 8 8 8 8 8 8 8 8 7 7 6 6 6 6 6 7 8 8 9 10 10 11 11
12 12 13 13 13 11 10 12 10 11 12 12 12 12 11 11 10 10 10 10 10 10 9 8 8 8 8 8 8 8 9 8 8 8 8 8 7 7 7 7 8 8 9 9 10 11 12 12 12
13 13 14 12 13 13 10 11 11 11 12 12 12 12 11 11 10 11 11 10 10 10 10 10 9 9 9 9 9 9 9 9 9 9 9 8 8 8 8 8 8 9 9 10 11 11 12 12 13
13 14 13 12 14 13 10 11 12 11 12 12 13 13 11 11 10 11 11 12 10 10 10 10 10 10 10 10 10 10 10 10 10 10 10 9 9 9 9 9 9 10 10 11 11 11 12 12 13
15 15 14 13 14 13 12 12 12 12 13 14 14 14 13 12 12 12 13 12 12 11 11 11 11 11 11 11 11 11 11 11 11 10 11 11 11 10 10 10 10 11 11 11 12 12 13 13 13
17 16 14 14 14 16 15 15 14 13 12 13 14 13 12 12 13 13 15 15 14 13 12 12 13 13 12 13 13 13 13 12 12 12 12 12 12 12 12 12 12 13 13 13 14 14 14 14 14
18 16 15 16 17 17 15 15 16 14 14 13 14 13 12 14 14 13 15 16 15 15 14 13 14 14 14 14 15 15 14 14 13 13 13 13 13 13 13 14 14 13 14 15 15 15 15 15 15
18 18 18 18 18 17 17 17 15 14 16 15 14 13 14 14 14 14 15 15 16 16 16 16 16 16 16 16 16 16 15 15 15 15 14 14 15 15 15 15 15 14 15 15 16 16 16 16 16
21 20 18 19 20 20 21 21 18 17 15 15 15 15 16 15 15 16 16 15 16 16 17 17 17 17 17 17 17 17 17 17 17 16 16 16 16 16 16 16 16 17 17 17 17 17 17 18 18
Wind_Direction
77 76 76 70 62 56 46 45 39 40 44 47 51 53 60 60 55 52 44 39 44 38 29 26 8 325 310 287 300 306 300 266 242 225 207 194 193 192 193 195 202 202 201 205 209 207 208 221 225
75 77 75 68 58 46 40 41 39 43 43 44 48 44 44 54 59 52 35 29 27 32 34 13 4 348 328 310 309 313 310 293 232 201 190 176 184 192 193 198 209 212 214 215 216 219 226 233 237
77 75 72 64 48 38 37 37 34 36 41 41 39 37 31 33 44 36 31 24 22 27 25 15 1 355 344 327 322 328 311 302 251 190 186 178 184 188 195 199 211 217 217 215 222 226 232 240 249
78 72 65 56 39 30 32 35 35 31 33 36 34 33 31 27 31 32 27 24 28 29 19 9 3 359 351 346 345 340 328 296 252 159 180 174 181 198 201 198 208 220 212 222 226 234 243 249 255
80 71 56 42 29 21 25 30 31 28 24 27 30 32 29 28 29 26 25 20 31 24 17 9 7 2 1 4 358 346 334 292 241 171 172 179 177 185 197 195 206 219 214 232 224 240 257 260 259
78 67 54 33 19 17 20 24 26 23 20 23 23 24 27 25 21 19 21 16 25 17 19 16 12 11 14 13 1 7 40 53 61 170 177 177 180 187 180 178 159 180 233 264 253 236 250 262 266
76 72 61 31 8 15 21 24 21 23 19 20 18 18 17 17 17 15 15 16 19 18 18 12 20 20 17 11 10 28 39 70 99 131 171 174 174 186 191 191 180 257 287 273 267 260 259 265 273
81 72 60 28 12 12 18 20 18 17 18 20 21 20 15 17 17 14 15 19 21 18 18 18 16 9 10 17 20 26 30 76 104 104 136 162 172 184 195 216 233 250 280 274 311 315 307 298 295
70 61 45 22 7 5 8 14 18 15 14 17 18 17 15 15 16 16 16 18 21 21 23 21 21 18 13 14 34 37 43 67 73 83 124 149 160 171 163 178 220 252 277 299 333 339 332 315 310
62 48 35 16 5 2 5 10 15 18 14 12 14 10 7 12 17 18 16 18 18 17 17 18 17 18 19 20 32 42 48 51 54 71 112 131 138 140 114 146 253 327 328 323 325 321 314 307 325
60 44 30 12 15 9 7 11 17 11 6 9 10 10 12 15 17 20 22 21 17 16 17 21 23 23 24 24 27 37 43 42 39 46 66 83 98 93 80 67 350 341 332 321 318 312 300 303 335
44 41 32 14 26 26 13 15 19 9 6 6 7 10 13 17 18 21 22 24 24 20 19 21 23 24 25 29 29 32 34 33 27 27 48 55 68 63 57 51 355 346 340 322 321 330 313 319 339
40 27 21 20 24 27 17 10 17 11 10 8 5 9 12 14 20 25 22 25 26 24 20 24 26 26 25 29 38 38 33 31 33 28 34 39 46 64 54 43 4 4 8 358 2 354 340 349 1
43 28 13 15 21 19 17 6 13 13 8 10 8 9 13 12 14 16 15 19 21 19 20 23 20 21 19 23 36 38 37 35 28 21 19 25 29 30 354 359 8 14 19 21 11 1 3 7 3
38 16 4 8 12 3 7 4 2 0 360 2 7 7 10 12 12 12 12 16 17 13 13 15 14 16 21 26 27 27 24 25 25 19 9 11 14 15 5 6 6 1 1 10 7 6 5 359 351
352 349 355 1 357 348 358 352 352 354 351 357 3 4 6 9 10 11 14 15 16 13 11 12 13 16 21 21 19 18 17 16 15 14 4 359 356 2 9 9 4 352 352 354 353 354 349 349 345
337 337 351 343 341 338 345 348 340 346 344 351 358 1 1 5 7 11 12 11 10 9 6 5 4 7 13 14 13 12 15 17 15 8 6 0 357 357 2 359 351 341 336 342 345 343 340 343 342
316 319 327 326 320 324 327 335 329 333 337 340 346 350 354 356 0 4 3 1 1 1 1 358 356 360 7 9 9 16 16 15 16 12 6 0 351 349 352 342 331 326 327 330 335 338 338 337 338
281 277 292 300 307 310 317 326 324 324 329 331 333 339 346 350 353 354 353 349 349 354 355 352 351 354 359 4 7 11 10 8 8 6 3 358 346 334 334 333 328 324 323 329 335 332 331 331 331
266 272 274 293 301 305 309 315 318 311 319 321 321 327 336 341 345 347 346 344 341 345 347 345 345 347 349 352 358 359 359 2 360 357 356 352 345 335 332 334 330 325 322 326 325 324 326 325 325
254 265 275 282 290 299 303 305 303 309 312 312 314 321 328 332 337 337 336 338 338 336 337 339 337 340 341 342 344 347 346 350 349 346 344 340 340 335 326 325 329 328 322 319 318 320 322 321 319
256 256 266 271 275 281 288 297 291 302 311 309 312 317 319 321 323 330 331 330 330 327 326 328 328 330 332 330 334 339 338 336 338 338 338 335 334 331 330 329 327 324 321 318 317 316 315 314 315
252 255 259 260 268 270 279 290 295 305 307 305 309 314 315 316 317 323 325 321 321 320 317 319 322 323 324 324 324 327 327 326 329 330 327 328 329 328 328 326 322 322 321 320 317 313 311 310 310
249 254 260 265 274 277 275 276 283 292 297 298 304 309 311 311 313 317 317 315 315 316 316 314 314 316 319 320 320 319 318 316 316 318 318 316 320 322 322 321 322 320 318 318 318 314 311 310 311
251 257 266 273 277 280 271 264 269 279 285 289 291 297 301 302 306 310 312 315 313 315 316 313 311 310 312 315 316 315 314 313 310 310 316 318 317 315 312 314 316 317 316 316 318 317 314 311 309
247 248 255 266 279 288 279 266 270 270 273 280 287 291 295 298 302 304 310 314 313 313 311 308 306 307 308 310 311 311 310 310 307 305 307 310 309 310 312 310 310 312 311 311 313 316 314 312 310
243 243 251 257 263 271 276 270 266 268 272 280 284 289 294 293 295 300 306 310 309 306 304 303 305 301 302 303 305 306 306 306 304 303 302 303 304 307 310 309 306 310 312 311 311 313 314 313 311
242 239 246 247 252 260 264 267 267 264 270 277 282 286 287 288 289 294 301 303 306 303 300 303 304 301 298 297 299 300 300 298 298 298 296 295 296 298 303 307 305 307 310 311 313 312 313 313 312
245 241 236 241 245 254 262 261 258 261 263 272 282 286 287 288 292 294 293 297 303 305 304 304 301 300 298 298 297 296 295 293 292 293 293 291 290 293 297 301 303 304 306 309 309 309 308 308 307
245 240 236 241 245 244 253 261 260 256 261 269 275 281 283 285 286 285 287 293 300 304 303 302 301 300 299 296 294 294 293 293 292 289 288 290 291 291 293 296 299 301 303 304 304 303 303 304 304
Height
5898 5897 5897 5897 5897 5898 5897 5896 5895 5894 5893 5892 5891 5890 5889 5889 5889 5890 5887 5885 5886 5885 5885 5884 5884 5884 5883 5883 5882 5882 5881 5881 5880 5879 5879 5879 5880 5880 5881 5882 5883 5884 5885 5886 5886 5887 5888 5888 5888
5900 5900 5899 5899 5900 5900 5900 5898 5897 5896 5895 5893 5892 5891 5890 5890 5889 5889 5887 5887 5886 5886 5886 5885 5884 5884 5884 5883 5883 5882 5881 5880 5880 5879 5879 5880 5880 5881 5881 5882 5883 5884 5885 5885 5886 5887 5887 5888 5888
5902 5901 5901 5901 5903 5902 5902 5900 5899 5897 5896 5895 5894 5894 5892 5891 5891 5890 5889 5888 5887 5887 5886 5886 5885 5885 5884 5883 5883 5882 5881 5880 5880 5880 5880 5881 5881 5881 5882 5883 5883 5884 5885 5885 5886 5886 5887 5887 5887
5904 5903 5904 5905 5905 5904 5903 5902 5901 5899 5898 5897 5896 5895 5893 5893 5892 5891 5890 5889 5888 5887 5887 5886 5886 5885 5884 5884 5883 5882 5881 5880 5880 5880 5880 5881 5882 5882 5883 5884 5884 5884 5885 5886 5886 5886 5887 5887 5887
5905 5905 5907 5908 5908 5906 5905 5904 5902 5901 5900 5899 5897 5896 5895 5894 5893 5892 5891 5890 5889 5888 5887 5886 5886 5885 5885 5884 5883 5882 5881 5881 5880 5880 5881 5882 5882 5883 5884 5884 5885 5885 5885 5885 5885 5886 5886 5886 5887
5905 5908 5911 5912 5911 5909 5907 5906 5905 5903 5902 5901 5899 5897 5896 5896 5894 5893 5892 5891 5889 5889 5888 5887 5887 5886 5885 5884 5883 5881 5881 5881 5880 5880 5881 5882 5883 5884 5884 5885 5886 5886 5886 5886 5886 5886 5886 5886 5886
5909 5911 5913 5914 5913 5911 5909 5908 5906 5905 5903 5902 5901 5899 5897 5897 5896 5894 5893 5892 5891 5890 5889 5888 5887 5886 5885 5884 5883 5882 5881 5881 5881 5881 5882 5883 5884 5884 5885 5885 5886 5886 5886 5886 5886 5886 5886 5886 5886
5912 5914 5916 5916 5915 5913 5911 5910 5908 5907 5905 5904 5903 5901 5899 5898 5897 5895 5894 5893 5892 5891 5890 5889 5888 5887 5886 5885 5884 5883 5882 5881 5882 5882 5883 5884 5884 5885 5886 5886 5886 5886 5886 5886 5886 5886 5886 5886 5886
5916 5918 5918 5918 5916 5914 5913 5911 5910 5908 5906 5905 5904 5903 5901 5899 5898 5896 5895 5894 5893 5892 5891 5890 5889 5888 5887 5885 5884 5884 5883 5883 5883 5884 5884 5884 5885 5886 5886 5886 5886 5887 5887 5887 5887 5886 5886 5886 5885
5920 5920 5920 5919 5918 5916 5914 5913 5911 5909 5908 5907 5906 5904 5902 5900 5899 5898 5897 5895 5894 5893 5892 5891 5890 5889 5888 5886 5884 5885 5885 5885 5885 5885 5885 5885 5886 5886 5887 5887 5887 5887 5887 5887 5887 5887 5886 5885 5885
5921 5921 5921 5920 5918 5917 5915 5914 5912 5911 5910 5908 5907 5905 5903 5901 5900 5899 5898 5897 5896 5895 5894 5892 5891 5890 5889 5888 5887 5887 5886 5886 5886 5886 5887 5887 5887 5887 5887 5887 5887 5887 5887 5887 5887 5886 5886 5886 5885
5923 5923 5922 5921 5919 5918 5917 5915 5914 5913 5911 5909 5908 5906 5905 5903 5902 5900 5900 5898 5897 5896 5895 5894 5892 5891 5890 5889 5889 5888 5888 5888 5887 5887 5887 5887 5888 5888 5888 5888 5888 5887 5887 5887 5887 5886 5886 5886 5885
5924 5924 5922 5921 5920 5919 5918 5916 5915 5914 5912 5911 5909 5908 5906 5905 5903 5902 5901 5900 5899 5898 5896 5895 5894 5892 5891 5890 5890 5889 5889 5888 5888 5888 5888 5888 5888 5888 5888 5888 5888 5888 5887 5887 5887 5887 5886 5886 5885
5924 5924 5923 5922 5921 5920 5919 5917 5916 5915 5913 5912 5910 5909 5907 5906 5905 5904 5903 5901 5901 5899 5898 5897 5895 5894 5893 5892 5891 5890 5890 5889 5889 5889 5889 5888 5889 5889 5889 5888 5889 5888 5888 5888 5887 5887 5886 5886 5885
5924 5924 5924 5924 5923 5922 5921 5919 5917 5915 5914 5913 5911 5910 5909 5907 5906 5905 5904 5903 5902 5901 5899 5898 5897 5896 5894 5894 5893 5891 5891 5890 5890 5890 5889 5889 5889 5889 5889 5889 5889 5889 5888 5888 5887 5887 5887 5886 5885
5924 5924 5924 5925 5924 5923 5923 5921 5919 5916 5915 5914 5912 5911 5910 5908 5907 5906 5905 5904 5903 5902 5901 5900 5898 5897 5896 5895 5894 5892 5892 5891 5891 5890 5890 5890 5890 5889 5889 5889 5889 5889 5888 5888 5888 5887 5887 5886 5885
5924 5924 5925 5926 5925 5924 5924 5922 5919 5918 5916 5914 5913 5912 5910 5909 5908 5907 5906 5905 5904 5903 5902 5901 5900 5898 5897 5896 5895 5894 5893 5892 5892 5891 5890 5890 5890 5890 5890 5890 5889 5889 5889 5889 5888 5887 5886 5885 5885
5925 5926 5927 5928 5926 5925 5924 5923 5920 5918 5916 5915 5913 5912 5911 5910 5908 5907 5906 5905 5905 5903 5902 5901 5901 5900 5898 5898 5897 5895 5894 5893 5892 5892 5891 5891 5890 5890 5890 5890 5889 5889 5889 5888 5887 5887 5886 5885 5884
5926 5926 5927 5928 5926 5925 5923 5923 5922 5919 5917 5915 5914 5912 5911 5910 5909 5908 5907 5906 5905 5904 5903 5902 5901 5900 5899 5898 5897 5896 5895 5894 5893 5892 5892 5891 5891 5890 5890 5890 5889 5889 5888 5888 5887 5886 5885 5885 5884
5925 5925 5926 5927 5925 5924 5923 5922 5921 5919 5917 5916 5914 5912 5911 5910 5909 5908 5907 5906 5905 5904 5903 5902 5902 5901 5900 5899 5898 5897 5896 5895 5894 5893 5892 5892 5891 5890 5890 5890 5889 5888 5888 5887 5886 5886 5885 5884 5883
5923 5924 5925 5925 5924 5923 5922 5921 5920 5918 5917 5915 5914 5912 5911 5909 5908 5908 5906 5906 5905 5904 5903 5902 5902 5901 5900 5899 5898 5897 5896 5895 5894 5893 5892 5891 5891 5890 5890 5889 5889 5888 5887 5886 5885 5885 5884 5883 5881
5922 5923 5924 5923 5922 5921 5921 5920 5918 5917 5916 5913 5912 5911 5910 5909 5908 5907 5906 5905 5904 5904 5903 5902 5901 5900 5899 5899 5898 5897 5896 5895 5894 5893 5892 5891 5890 5890 5889 5888 5888 5887 5886 5885 5884 5883 5882 5881 5880
5919 5920 5920 5919 5918 5918 5919 5918 5917 5915 5915 5913 5912 5911 5909 5908 5907 5906 5905 5904 5903 5902 5902 5901 5900 5899 5899 5898 5897 5896 5895 5894 5893 5892 5891 5890 5889 5889 5888 5887 5887 5886 5885 5884 5883 5881 5880 5879 5878
5916 5917 5916 5916 5916 5916 5917 5917 5915 5915 5914 5912 5910 5909 5908 5907 5906 5904 5903 5903 5902 5901 5900 5899 5899 5898 5898 5897 5896 5895 5894 5893 5892 5891 5890 5889 5888 5888 5887 5886 5885 5884 5883 5882 5881 5879 5878 5877 5876
5913 5914 5914 5914 5914 5914 5915 5915 5914 5913 5912 5910 5909 5908 5907 5905 5904 5903 5902 5901 5900 5899 5899 5898 5897 5897 5896 5895 5895 5894 5893 5892 5891 5890 5889 5888 5887 5886 5885 5884 5883 5883 5881 5880 5879 5877 5876 5875 5873
5909 5911 5913 5913 5913 5912 5911 5911 5912 5910 5909 5909 5908 5906 5905 5904 5903 5901 5901 5900 5898 5897 5897 5896 5895 5895 5894 5893 5893 5892 5891 5890 5889 5888 5888 5887 5886 5884 5883 5882 5881 5881 5879 5878 5877 5875 5874 5872 5871
5905 5907 5909 5911 5910 5910 5909 5908 5908 5907 5906 5906 5905 5904 5903 5902 5901 5900 5899 5897 5896 5895 5894 5894 5893 5892 5891 5891 5890 5890 5889 5888 5887 5886 5885 5885 5884 5882 5881 5880 5879 5878 5877 5875 5874 5873 5871 5870 5868
5901 5903 5905 5906 5906 5906 5906 5906 5904 5903 5903 5902 5902 5901 5900 5899 5898 5897 5897 5895 5894 5893 5891 5891 5890 5889 5888 5888 5887 5887 5886 5885 5884 5884 5883 5882 5881 5880 5878 5877 5876 5875 5874 5873 5871 5870 5868 5867 5865
5897 5899 5900 5902 5902 5903 5902 5904 5901 5900 5899 5898 5898 5898 5897 5897 5896 5894 5894 5893 5891 5890 5888 5888 5887 5887 5886 5885 5885 5884 5882 5881 5880 5880 5879 5878 5877 5876 5875 5874 5873 5872 5871 5870 5868 5867 5865 5864 5862
5892 5893 5896 5897 5897 5898 5897 5899 5896 5894 5894 5895 5895 5894 5894 5894 5893 5892 5890 5888 5888 5887 5886 5885 5884 5883 5882 5881 5880 5879 5879 5877 5876 5875 5875 5874 5874 5873 5872 5871 5870 5869 5867 5866 5865 5863 5862 5860 5859